Location: D�derode
(51.8092°N, 10.1065°E)
Time: 05:34:44
(UTC+00:00)

CSL-04 Debris - Pass Details

Date: 01 December 2020
Orbit: 826 x 848 km, 98.9° (Epoch: 23 January)

Event Time Altitude Azimuth Distance (km) Brightness Sun altitude
Exits shadow 17:27:29 28° 119° (ESE) 1,539 5.1 -19.9°
Maximum altitude 17:29:57 46° 65° (ENE) 1,131 4.4 -20.3°
Drops below altitude 10° 17:35:11 10° 354° (N) 2,481 6.6 -21.1°
Sets 17:37:37 0° 348° (NNW) 3,418 7.4 -21.4°
